Volver al catálogo

FENGYUN 1C DEB

LostSSO
NORAD 38802·DEBRIS·🇨🇳 China

Lanzado May 10, 1999 desde Taiyuan Satellite Launch Center

Loading…

Próximos Pases (próximas 24 horas)

TLE

ObsoletoSource: Space-Track

Época: Apr 16, 2017, 09:31 UTC

1 38802U 99025EUS 17106.39671985  .00000208  00000-0  11022-3 0  9998
2 38802  98.5701 167.6672 0046104  32.0447 328.4115 14.13138297412980

Sigue FENGYUN 1C DEB en tiempo real con AllMySat

Download on the App Store